DAL16M MMGL-KSAN

Flight info

Callsign DAL16M
Flight time N/A
Altitude 34000
Route SEDEM1B SEDEM UJ3 LMM UT8 PPE UJ3 TIJ
Aircraft A321/M-SDE3FGHIRWY/LB1

Departure

Time N/A
Airport Guadalajara International Airport (MMGL)

Arrival

Time 2026-04-22 03:44
Airport San Diego International Airport (KSAN)
Time Latitude Longitude Altitude Speed Heading
2026-04-22 03:11 31.40224 -113.85386 38059 ft 407 kts 308°
2026-04-22 03:12 31.42842 -113.88536 38063 ft 408 kts 308°
2026-04-22 03:12 31.54707 -114.02846 38064 ft 408 kts 308°
2026-04-22 03:13 31.62631 -114.12402 38085 ft 410 kts 308°
2026-04-22 03:13 31.70564 -114.22021 38081 ft 410 kts 308°
2026-04-22 03:14 31.78490 -114.31660 38082 ft 410 kts 308°
2026-04-22 03:14 31.86436 -114.41338 38110 ft 410 kts 307°
2026-04-22 03:15 31.94338 -114.50984 38106 ft 409 kts 307°
2026-04-22 03:15 32.02244 -114.60669 38141 ft 411 kts 307°
2026-04-22 03:16 32.10166 -114.70398 37911 ft 410 kts 307°
2026-04-22 03:16 32.18069 -114.80119 37941 ft 411 kts 307°
2026-04-22 03:17 32.24247 -114.87734 37942 ft 412 kts 307°
2026-04-22 03:17 32.28207 -114.92634 37945 ft 412 kts 307°
2026-04-22 03:18 32.32167 -114.97546 37945 ft 412 kts 307°
2026-04-22 03:18 32.36122 -115.02457 37929 ft 413 kts 307°
2026-04-22 03:19 32.40093 -115.07382 37948 ft 415 kts 307°
2026-04-22 03:19 32.42090 -115.09860 37479 ft 419 kts 307°
2026-04-22 03:19 32.44129 -115.12398 36387 ft 429 kts 307°
2026-04-22 03:20 32.46179 -115.14949 35812 ft 427 kts 307°
2026-04-22 03:20 32.48235 -115.17505 35101 ft 429 kts 307°
2026-04-22 03:20 32.50297 -115.20074 34310 ft 432 kts 308°
2026-04-22 03:20 32.52349 -115.22632 33403 ft 436 kts 308°
2026-04-22 03:21 32.54427 -115.25221 32918 ft 430 kts 307°
2026-04-22 03:21 32.56482 -115.27777 32372 ft 426 kts 307°
2026-04-22 03:21 32.58514 -115.30309 31846 ft 422 kts 307°
2026-04-22 03:21 32.60536 -115.32833 31262 ft 419 kts 307°
2026-04-22 03:22 32.62534 -115.35330 30742 ft 416 kts 307°
2026-04-22 03:22 32.64410 -115.37904 29908 ft 412 kts 297°
2026-04-22 03:22 32.65643 -115.40940 28876 ft 405 kts 281°
2026-04-22 03:22 32.66218 -115.44160 28428 ft 394 kts 277°
2026-04-22 03:23 32.66740 -115.47332 27943 ft 388 kts 277°
2026-04-22 03:23 32.67263 -115.50449 27470 ft 382 kts 277°
2026-04-22 03:23 32.67781 -115.53516 27014 ft 376 kts 277°
2026-04-22 03:23 32.68287 -115.56539 26570 ft 370 kts 277°
2026-04-22 03:24 32.68780 -115.59514 26129 ft 365 kts 277°
2026-04-22 03:24 32.69259 -115.62446 25721 ft 359 kts 277°
2026-04-22 03:24 32.69728 -115.65334 25329 ft 353 kts 277°
2026-04-22 03:24 32.70190 -115.68171 24924 ft 348 kts 277°
2026-04-22 03:25 32.70648 -115.70969 24519 ft 343 kts 277°
2026-04-22 03:25 32.71098 -115.73723 24127 ft 338 kts 277°
2026-04-22 03:25 32.71541 -115.76447 23737 ft 333 kts 277°
2026-04-22 03:25 32.71978 -115.79137 23323 ft 330 kts 277°
2026-04-22 03:26 32.72405 -115.81764 22903 ft 325 kts 277°
2026-04-22 03:26 32.72829 -115.84379 22538 ft 320 kts 277°
2026-04-22 03:26 32.73246 -115.86957 22161 ft 315 kts 277°
2026-04-22 03:26 32.73660 -115.89495 21788 ft 311 kts 277°
2026-04-22 03:27 32.74067 -115.92004 21417 ft 308 kts 277°
2026-04-22 03:27 32.74469 -115.94499 21032 ft 307 kts 277°
2026-04-22 03:27 32.74867 -115.96989 20658 ft 307 kts 277°
2026-04-22 03:27 32.75263 -115.99487 20276 ft 308 kts 277°
2026-04-22 03:28 32.75658 -116.01982 19914 ft 307 kts 277°
2026-04-22 03:28 32.76053 -116.04472 19533 ft 306 kts 277°
2026-04-22 03:28 32.76244 -116.06975 19136 ft 303 kts 269°
2026-04-22 03:28 32.76298 -116.09477 18716 ft 302 kts 269°
2026-04-22 03:29 32.76351 -116.11974 18291 ft 302 kts 269°
2026-04-22 03:29 32.76403 -116.14468 17759 ft 304 kts 269°
2026-04-22 03:29 32.76456 -116.16984 17306 ft 304 kts 269°
2026-04-22 03:29 32.76508 -116.19483 16890 ft 302 kts 269°
2026-04-22 03:30 32.76557 -116.21969 16456 ft 301 kts 269°
2026-04-22 03:30 32.76605 -116.24458 16054 ft 301 kts 269°
2026-04-22 03:30 32.76655 -116.26938 15693 ft 299 kts 269°
2026-04-22 03:30 32.76705 -116.29406 15280 ft 298 kts 269°
2026-04-22 03:31 32.76753 -116.31857 14875 ft 296 kts 269°
2026-04-22 03:31 32.76801 -116.34296 14480 ft 295 kts 269°
2026-04-22 03:31 32.76849 -116.36726 14082 ft 294 kts 269°
2026-04-22 03:31 32.76896 -116.39150 13681 ft 294 kts 269°
2026-04-22 03:32 32.76940 -116.41571 13261 ft 292 kts 269°
2026-04-22 03:32 32.76984 -116.43982 12861 ft 292 kts 269°
2026-04-22 03:32 32.77028 -116.46386 12453 ft 290 kts 269°
2026-04-22 03:32 32.77074 -116.48742 12054 ft 289 kts 269°
2026-04-22 03:33 32.77122 -116.51117 11669 ft 286 kts 269°
2026-04-22 03:33 32.77166 -116.53469 11271 ft 284 kts 269°
2026-04-22 03:33 32.77040 -116.55805 10630 ft 284 kts 255°
2026-04-22 03:33 32.76490 -116.58000 10152 ft 268 kts 252°
2026-04-22 03:34 32.75945 -116.60086 10018 ft 264 kts 252°
2026-04-22 03:34 32.75407 -116.62151 9985 ft 261 kts 252°
2026-04-22 03:34 32.74871 -116.64209 9992 ft 260 kts 252°
2026-04-22 03:34 32.74336 -116.66258 9992 ft 261 kts 252°
2026-04-22 03:35 32.73796 -116.68322 9659 ft 260 kts 251°
2026-04-22 03:35 32.73263 -116.70359 8825 ft 258 kts 252°
2026-04-22 03:35 32.72740 -116.72361 8280 ft 247 kts 252°
2026-04-22 03:35 32.72234 -116.74295 7931 ft 244 kts 252°
2026-04-22 03:36 32.71732 -116.76214 7591 ft 243 kts 253°
2026-04-22 03:36 32.71234 -116.78118 7261 ft 240 kts 253°
2026-04-22 03:36 32.70740 -116.80008 6930 ft 239 kts 253°
2026-04-22 03:36 32.70248 -116.81884 6604 ft 237 kts 253°
2026-04-22 03:37 32.69761 -116.83731 6258 ft 230 kts 253°
2026-04-22 03:37 32.69294 -116.85500 5948 ft 219 kts 253°
2026-04-22 03:37 32.68850 -116.87188 5655 ft 210 kts 252°
2026-04-22 03:37 32.68416 -116.88842 5366 ft 210 kts 253°
2026-04-22 03:38 32.67981 -116.90498 5082 ft 210 kts 253°
2026-04-22 03:38 32.67545 -116.92157 4790 ft 211 kts 253°
2026-04-22 03:38 32.67351 -116.93865 4511 ft 208 kts 272°
2026-04-22 03:38 32.67646 -116.95523 4222 ft 204 kts 285°
2026-04-22 03:39 32.68048 -116.97124 3933 ft 201 kts 285°
2026-04-22 03:39 32.68440 -116.98712 3661 ft 198 kts 284°
2026-04-22 03:39 32.68816 -117.00244 3415 ft 188 kts 284°
2026-04-22 03:39 32.69169 -117.01690 3132 ft 177 kts 285°
2026-04-22 03:40 32.69496 -117.03031 2903 ft 160 kts 285°
2026-04-22 03:40 32.69793 -117.04254 2695 ft 150 kts 285°
2026-04-22 03:40 32.70070 -117.05394 2493 ft 138 kts 285°
2026-04-22 03:40 32.70333 -117.06472 2299 ft 134 kts 285°
2026-04-22 03:41 32.70586 -117.07527 2106 ft 132 kts 285°
2026-04-22 03:41 32.70831 -117.08569 1950 ft 131 kts 286°
2026-04-22 03:41 32.71079 -117.09612 1730 ft 131 kts 286°
2026-04-22 03:41 32.71330 -117.10650 1540 ft 132 kts 286°
2026-04-22 03:42 32.71589 -117.11679 1370 ft 131 kts 286°
2026-04-22 03:42 32.71848 -117.12711 1150 ft 130 kts 285°
2026-04-22 03:42 32.72095 -117.13741 946 ft 129 kts 285°
2026-04-22 03:42 32.72341 -117.14780 725 ft 133 kts 287°
2026-04-22 03:43 32.72598 -117.15835 518 ft 133 kts 287°
2026-04-22 03:43 32.72846 -117.16875 309 ft 129 kts 288°
2026-04-22 03:43 32.73092 -117.17892 69 ft 126 kts 287°
2026-04-22 03:43 32.73300 -117.18716 30 ft 116 kts 284°
2026-04-22 03:44 32.73461 -117.19394 28 ft 60 kts 287°
2026-04-22 03:44 32.73534 -117.19696 30 ft 29 kts 281°
2026-04-22 03:44 32.73528 -117.19772 30 ft 2 kts 255°
2026-04-22 03:44 32.73519 -117.19804 29 ft 1 kts 249°
2026-04-22 03:45 32.73493 -117.19891 27 ft 10 kts 251°
2026-04-22 03:45 32.73491 -117.19898 27 ft 0 kts 252°
2026-04-22 03:45 32.73490 -117.19903 27 ft 1 kts 252°
2026-04-22 03:45 32.73489 -117.19904 27 ft 0 kts 252°
2026-04-22 03:46 32.73489 -117.19906 27 ft 5 kts 256°
2026-04-22 03:46 32.73525 -117.20084 27 ft 31 kts 285°
2026-04-22 03:47 32.73586 -117.20332 22 ft 25 kts 286°
2026-04-22 03:47 32.73537 -117.20477 20 ft 19 kts 228°
2026-04-22 03:47 32.73447 -117.20555 21 ft 14 kts 188°
2026-04-22 03:47 32.73392 -117.20557 23 ft 5 kts 179°
2026-04-22 03:48 32.73365 -117.20556 23 ft 3 kts 172°
2026-04-22 03:48 32.73355 -117.20550 24 ft 1 kts 153°
2026-04-22 03:48 32.73343 -117.20502 24 ft 10 kts 89°
2026-04-22 03:48 32.73345 -117.20464 25 ft 0 kts 86°